TITAN 3C TRANSTAGE DEB, 3978

Orbit data source: Space-Track

TITAN 3C TRANSTAGE DEB, 3978 is space debris in LEO originally from a launch on Fri, 15 Oct 1965 UTC launched from the Air Force Eastern Test Range (AFETR). Debris objects in space refer to the collection of defunct objects orbiting the Earth. Examples of debris include non-operational satellites, rocket bodies, and fragments generated from explosions, collisions, or faulty payload assembly.

Loading next visibility...
Identifier
3978, 1965-082SE
Orbit
LEO
Country
Flag of USUS
Related business
Manufacturer
Unknown
Mission
Spacecraft
Bus & Motor
Unknown
Mass
Unknown
Launch date (UTC)
1965-10-15 (61 years ago)
Launch vehicle
Unknown
Launch site
Air Force Eastern Test Range (AFETR)
Object type
Payload
Rocket body
Debris
Shape & HBR
Unknown shape, 0.1 m
Radar Cross Section
Small (<0.1 m²)

Expand to show TLE details & history
Last TLE update: 7 hours ago

TLE from 7 hours ago
0 TITAN 3C TRANSTAGE DEB
1  3978U 65082SE  26124.41019902  .00000716  00000-0  11012-3 0  9991
2  3978  32.5629 172.4741 0034112 292.0133  67.6900 14.70409889440469
Epoch: 2026-05-04T09:50Z
TLE epoch observation values (Epoch: 2026-05-04T09:50:41.195Z)
Latitude
-0.00002°
Longitude
162.50263°
Altitude
649.406 km
Speed
7.54 km/s
True Right ascension
11h 29m 53s
True Declination
0° 00' 00"
Sunlit
Object was in full shadow at epoch
Visualization orbit readout
Latitude
Unknown
Longitude
Unknown
Altitude
Unknown
Speed
Unknown
Apparent Right ascension
Unknown
Apparent Declination
Unknown
Sunlit
N/A
Visualization observer readout
Local Sidereal Time
00:20:15
Azimuth
Unknown
Elevation
Unknown
Doppler factor
Unknown
Orbital elements
Apogee altitude
687.324 km
Perigee altitude
639.284 km
Semi-major axis
7,041.441 km
Eccentricity
0.00341
Inclination
32.5629°
RAAN
172.4741°
Arg. of periapsis
292.0133°
True anomaly
68.05222°
Mean anomaly
67.69°
Eccentric anomaly
67.87105°
Mean motion
3.67325 °/min
Orbital period
98.01 mins
BSTAR
0.00011012

Documentation

Showing up to 5 results
|